Wind_Speed
31 32 33 33 36 37 38 40 42 43 43 42 42 42 41 42 43 43 31 38 24 5 6 16 14 13 10 9 6 4 2 2 2 5 4 4 4 7 5 5 6 5 4 2 3 1 6 4 8 6 6 4 4 1
32 33 34 36 37 40 42 43 43 42 45 46 46 46 45 45 44 44 13 27 39 6 2 21 29 29 22 14 5 5 4 3 5 3 1 2 2 2 5 5 5 5 7 3 5 6 5 4 2 6 5 2 4 5
30 31 34 37 41 41 36 35 37 38 37 39 42 47 49 48 45 45 25 16 31 8 3 6 12 22 28 23 14 4 2 1 2 3 4 3 4 4 2 8 4 3 2 4 4 8 11 6 4 3 3 4 3 3
32 33 34 33 28 29 32 33 37 40 41 40 41 42 47 50 45 43 22 29 21 3 4 5 16 22 37 16 20 14 6 3 1 2 2 3 3 4 4 7 4 5 6 4 3 6 5 7 7 7 7 4 2 2
29 29 24 20 22 21 23 28 33 39 44 42 42 41 39 52 46 38 25 33 18 3 3 4 9 17 32 23 15 11 6 3 2 0 1 3 2 1 1 3 5 5 6 4 5 9 6 6 8 6 7 5 2 2
22 13 12 13 10 10 10 11 7 21 41 40 41 43 42 47 46 31 4 22 30 10 1 3 2 8 19 24 15 5 4 3 3 2 3 3 3 2 2 3 6 7 6 8 10 6 11 2 2 1 6 4 7 7
6 8 10 7 6 7 11 13 16 24 30 34 44 44 46 48 41 8 6 12 40 25 1 3 3 2 11 9 4 2 1 2 3 3 4 3 2 3 2 4 5 17 14 12 8 5 1 4 5 2 7 9 12 13
9 10 10 10 13 13 15 23 30 35 39 38 43 43 51 44 29 4 2 31 42 4 3 3 2 3 3 3 2 1 2 0 1 3 1 3 1 2 5 3 4 14 23 17 9 3 3 8 8 7 8 10 15 13
25 19 16 15 20 23 31 34 35 40 45 50 55 47 32 12 3 6 34 37 19 3 3 3 4 3 2 1 3 2 2 2 1 2 3 4 4 6 4 0 7 14 15 13 5 8 8 10 10 9 13 12 16 13
38 40 32 35 27 33 34 41 46 46 48 45 23 4 3 5 31 20 7 4 4 2 2 2 2 3 3 1 1 3 2 2 2 5 3 3 4 4 5 7 9 10 14 5 9 6 9 8 9 12 14 12 14 13
37 38 38 38 39 42 44 41 34 28 25 6 3 3 13 22 6 2 3 3 3 2 1 2 3 4 1 3 3 1 3 2 3 4 6 3 3 3 3 7 12 10 8 12 9 12 12 11 13 14 13 15 15 17
37 35 37 34 28 31 28 17 9 8 7 8 13 8 5 2 2 4 2 2 3 4 1 4 3 3 1 2 3 2 3 3 5 4 3 3 1 4 6 7 11 7 9 15 15 18 15 14 13 16 15 15 19 25
31 31 30 34 30 28 24 19 23 13 3 3 4 4 4 3 7 5 2 2 3 1 3 2 3 3 2 2 2 2 5 6 3 4 1 3 3 4 3 6 10 5 12 15 18 19 21 19 21 22 16 23 26 27
20 23 22 23 25 19 12 6 6 6 10 4 4 6 4 4 4 4 4 2 2 2 3 3 4 3 2 2 2 3 3 2 5 2 3 2 2 3 4 7 11 7 13 15 17 17 18 17 19 24 25 25 27 26
13 13 14 18 18 17 14 10 12 11 5 5 5 5 5 2 3 3 3 2 5 3 2 3 3 2 2 2 3 2 2 3 4 2 2 2 4 6 8 8 10 12 13 14 14 16 17 23 23 25 28 30 31 31
7 8 17 12 15 15 9 12 14 6 4 4 7 4 4 3 6 5 7 3 4 4 1 1 2 3 2 2 4 5 2 3 2 2 3 5 8 9 11 12 12 12 13 14 19 22 25 25 25 27 30 30 29 29
10 6 14 10 15 20 11 6 8 6 5 5 4 3 3 2 3 3 4 5 5 2 2 2 4 3 2 3 3 4 3 2 3 5 6 8 10 11 12 13 13 17 17 21 24 26 27 28 29 29 22 26 30 29
8 14 12 5 8 6 7 9 4 5 7 4 3 4 4 3 5 5 6 6 5 3 3 4 3 6 4 3 3 3 4 5 6 7 7 9 12 12 16 14 20 22 23 24 25 25 26 25 24 21 25 25 28 28
14 16 10 7 7 5 4 5 6 4 5 2 2 3 2 2 4 6 7 8 4 4 3 3 5 4 3 3 2 3 3 4 7 8 9 13 18 18 20 22 24 23 23 23 22 20 22 21 20 20 20 21 22 21
6 14 15 11 4 4 4 3 5 4 3 2 2 6 3 2 4 3 8 7 7 3 6 5 4 3 3 3 4 1 4 5 8 9 8 8 15 18 18 18 17 22 23 23 23 22 22 22 21 20 20 21 21 20
11 17 16 8 6 11 4 2 4 3 4 3 2 1 2 1 8 8 5 5 6 4 4 4 3 4 8 11 13 14 9 9 7 7 8 8 13 17 18 20 20 20 18 17 16 18 19 17 18 20 23 22 23 24
7 6 7 10 4 4 4 6 4 2 3 4 3 2 3 3 3 5 3 7 4 4 3 3 5 5 9 12 11 17 17 22 21 20 19 18 8 7 12 15 17 15 17 17 17 17 17 17 21 23 24 23 26 26
3 6 6 8 6 6 3 3 4 4 3 3 2 3 3 3 3 4 4 5 3 4 7 7 10 14 12 17 23 23 20 20 15 16 18 18 19 19 18 18 16 16 16 16 17 18 19 20 23 25 25 25 25 24
7 6 5 4 6 2 3 5 4 4 5 3 3 3 3 3 3 4 4 3 3 8 7 8 9 6 10 14 8 13 15 17 19 19 16 17 15 17 18 19 18 17 16 17 20 22 23 22 22 23 23 23 22 22
7 9 5 7 4 5 5 4 5 4 4 4 4 4 3 3 3 4 3 3 5 5 5 9 10 7 6 6 10 17 21 16 14 11 16 16 18 18 18 19 18 15 16 20 19 22 22 23 22 21 20 20 20 19
8 6 5 6 4 5 4 4 4 4 3 3 3 3 3 3 4 4 2 2 4 4 4 5 4 5 7 11 7 10 13 14 17 15 14 12 11 12 12 10 10 11 12 15 19 20 20 20 21 20 19 17 16 16
6 5 3 4 3 3 4 4 4 5 5 5 3 4 4 5 3 2 2 4 2 8 12 12 11 10 8 11 14 15 15 16 17 15 15 17 16 14 15 13 10 10 13 13 13 15 18 17 17 15 15 13 11 10
3 4 5 6 5 5 4 4 4 5 3 4 3 6 3 3 1 1 2 7 13 15 16 16 15 14 13 14 14 16 17 21 22 23 24 23 20 18 17 15 12 10 11 11 11 11 13 13 13 11 11 11 9 6
3 2 4 6 5 5 5 3 2 2 2 1 3 2 2 2 1 4 7 11 13 14 12 12 13 15 16 15 13 10 9 8 6 6 7 4 6 11 9 10 11 12 11 11 10 9 9 9 10 10 9 7 6 5
3 2 4 4 5 5 3 2 1 3 3 3 3 4 3 4 11 11 11 11 9 9 10 9 9 10 10 13 14 15 13 7 11 10 5 4 8 10 8 9 10 8 8 9 10 10 9 9 9 7 6 4 2 2
2 4 5 4 3 2 1 0 10 10 4 4 4 4 2 2 7 14 12 9 12 14 15 13 11 8 9 10 12 12 11 11 11 11 13 13 9 7 6 6 6 5 4 6 5 5 6 7 6 7 4 2 2 1
3 3 4 4 0 3 2 1 2 3 1 3 2 2 3 3 2 4 8 2 9 11 9 9 11 11 8 7 6 7 12 11 8 8 7 8 8 8 8 6 3 3 5 5 4 3 3 4 3 2 1 1 3 5
3 4 4 4 3 0 3 3 3 2 3 2 1 1 1 3 2 2 5 2 8 11 11 10 10 9 7 9 9 7 6 6 6 5 4 4 4 4 3 2 1 2 5 5 4 2 2 1 1 2 2 3 5 7
Wind_Direction
286 284 282 279 276 273 269 263 258 252 247 241 235 229 225 221 217 209 219 195 193 210 200 203 187 189 214 208 192 228 140 232 109 185 197 221 195 215 198 190 145 165 272 159 123 345 257 8 340 176 225 251 254 147
289 288 284 281 278 276 271 266 261 253 243 236 231 225 221 216 212 208 211 211 191 197 217 207 215 198 208 222 169 213 215 155 190 147 203 123 254 315 143 261 164 234 173 253 173 203 256 293 177 294 340 298 359 106
294 294 293 290 286 282 274 266 259 253 243 234 226 219 214 210 206 203 204 197 183 187 166 203 210 199 209 226 215 161 265 196 108 192 181 192 198 148 251 234 214 285 124 213 110 228 238 266 267 265 323 320 310 36
304 298 297 295 287 287 282 271 260 249 238 229 220 215 211 202 199 192 190 182 188 113 178 196 202 202 212 231 212 208 196 103 120 86 250 180 168 168 231 243 192 205 154 191 261 274 275 263 250 261 243 227 279 11
308 305 300 298 301 300 295 284 264 243 222 215 208 205 202 195 187 178 161 177 171 175 148 154 183 213 210 207 197 200 175 131 120 243 113 264 252 140 176 32 269 195 187 166 223 231 192 234 255 195 238 249 237 59
311 313 318 320 322 335 346 356 325 194 192 192 191 186 183 179 163 141 129 184 193 200 269 144 147 169 184 195 202 192 183 142 129 143 220 195 247 103 122 226 281 250 208 192 241 218 213 175 107 84 117 73 41 38
15 355 351 13 36 52 44 63 92 132 160 174 175 172 171 166 148 141 170 170 184 202 237 94 97 98 172 162 164 156 152 183 140 154 210 176 190 109 153 240 262 288 299 293 231 126 78 169 142 47 89 81 78 62
35 36 32 77 73 84 85 93 104 121 114 138 157 153 141 136 144 132 158 164 170 186 188 123 157 89 3 114 127 62 123 177 146 179 90 136 86 144 234 226 273 290 284 273 275 250 163 115 108 100 91 92 71 65
64 61 64 87 95 93 104 106 109 116 119 121 123 118 109 108 103 119 139 146 178 211 111 109 129 137 62 108 108 61 120 166 359 172 186 124 188 225 231 124 325 323 301 261 168 115 98 108 106 86 85 79 89 84
65 61 79 83 105 108 108 108 104 106 114 115 106 71 100 185 131 107 55 32 14 299 79 94 115 108 107 92 71 99 90 190 201 227 151 168 232 188 119 85 39 325 318 203 123 109 112 97 92 83 85 87 93 93
63 65 70 81 93 102 112 111 103 101 116 69 53 65 119 103 85 71 141 148 139 54 32 123 119 121 357 115 141 182 168 178 215 236 164 227 240 157 133 82 60 352 350 15 62 83 83 109 117 107 94 90 92 93
63 76 75 83 101 113 107 106 68 49 71 117 130 140 138 109 91 104 40 16 80 156 97 116 134 121 106 83 104 200 187 177 240 147 142 227 55 28 63 50 62 358 61 64 62 81 85 90 100 104 104 101 98 99
57 65 74 79 82 89 101 109 110 90 37 70 59 53 24 344 54 71 100 12 100 93 152 126 105 114 110 139 114 152 197 217 131 176 172 48 58 27 59 85 64 29 78 84 80 79 83 85 88 94 96 96 99 97
54 51 68 67 62 79 95 42 32 34 46 60 56 36 64 17 42 25 355 40 34 2 97 106 109 122 135 139 179 215 211 210 197 155 81 56 20 47 59 80 95 101 86 85 90 92 89 87 87 87 90 96 97 94
41 51 71 48 41 53 58 57 51 57 52 52 30 50 54 52 14 350 323 40 3 321 357 66 89 113 129 193 192 289 166 75 39 48 43 53 55 76 76 81 84 82 83 85 89 92 93 94 91 89 90 93 94 94
46 53 36 38 29 31 62 71 51 63 61 57 38 21 3 27 11 13 3 15 356 338 292 46 149 151 99 52 49 15 43 46 29 43 77 79 77 77 79 78 79 82 83 87 88 91 93 92 91 90 85 83 84 88
57 37 7 47 45 40 48 63 44 46 53 52 32 0 6 36 18 358 342 345 317 303 45 29 52 42 16 71 67 23 33 38 56 76 77 83 92 94 92 89 87 90 91 92 94 92 93 94 93 89 85 85 86 85
37 1 358 351 352 18 37 43 71 63 61 28 61 8 61 44 2 7 342 339 1 17 33 48 22 38 33 42 24 24 51 57 55 67 76 81 84 85 89 91 91 91 91 91 91 91 91 92 90 90 93 94 90 88
34 21 17 29 30 70 62 31 64 86 44 53 18 354 27 52 20 10 2 1 356 29 71 57 53 36 22 5 338 13 58 78 87 76 71 71 78 82 83 82 82 80 79 81 82 81 80 84 91 96 98 97 94 96
53 37 39 44 51 78 70 27 66 82 71 124 87 49 58 0 334 347 17 11 24 56 48 44 30 359 338 305 268 244 79 93 103 92 73 61 66 76 76 82 83 87 85 82 78 83 84 80 77 87 98 99 98 95
37 27 30 37 53 59 82 74 59 98 124 76 156 163 93 53 32 25 28 7 48 37 61 28 22 18 13 22 55 73 63 72 77 87 95 84 69 74 72 72 78 80 82 84 86 81 81 83 90 94 94 94 97 100
15 21 13 32 71 66 70 30 91 101 81 131 111 65 42 38 7 17 23 40 65 26 25 18 25 32 43 40 45 59 77 81 79 79 78 81 79 71 68 73 82 80 76 79 88 90 91 96 99 100 100 101 107 108
54 40 39 31 58 42 15 19 54 29 73 70 45 53 58 56 37 27 68 31 54 43 49 45 41 42 54 57 59 53 61 79 77 75 78 79 78 78 78 74 77 85 85 79 90 95 98 104 107 109 113 114 113 110
51 52 42 50 39 67 29 26 21 33 27 28 42 42 51 80 94 65 62 43 27 23 36 39 41 55 52 47 46 49 52 74 80 71 73 87 85 76 77 77 78 81 90 99 101 102 112 118 121 120 121 121 122 120
67 354 54 10 356 53 50 33 16 51 50 27 53 15 41 49 57 53 47 19 18 29 30 41 50 48 64 64 58 54 54 64 79 81 68 84 92 89 80 76 75 82 115 111 107 112 114 117 122 125 126 125 124 125
70 1 47 13 3 60 24 48 36 32 37 59 36 21 53 70 64 54 56 9 358 21 33 41 52 64 52 44 54 47 43 73 81 72 52 79 85 99 101 96 90 71 110 122 123 120 124 122 121 121 117 124 131 133
53 2 7 20 355 40 48 46 32 57 45 27 352 20 58 68 74 84 94 24 38 56 73 78 78 78 80 75 70 71 83 90 86 86 90 93 97 108 112 102 89 97 131 129 132 139 137 129 126 125 122 121 119 125
77 52 60 322 49 23 82 51 40 29 359 336 45 32 88 98 111 21 90 113 101 95 89 89 94 98 96 95 96 98 98 103 102 98 94 85 81 87 93 96 100 113 117 125 131 130 134 138 133 130 136 131 125 116
47 21 73 29 42 37 38 79 18 337 310 17 99 81 80 41 40 110 121 129 128 118 98 92 93 106 102 100 102 121 148 160 111 94 88 95 87 85 88 106 99 91 99 118 122 128 129 134 134 131 124 124 125 144
351 70 88 53 61 44 319 81 249 294 9 85 86 95 63 36 32 128 126 129 120 121 133 121 110 110 112 111 92 73 66 84 165 136 142 151 128 130 123 116 109 111 111 117 125 128 135 133 137 135 141 138 113 167
92 66 70 57 83 297 238 310 78 52 36 52 42 94 114 137 58 59 64 104 119 120 115 106 101 111 120 120 116 109 82 74 88 99 111 126 136 139 141 140 132 125 131 130 132 149 145 142 147 161 162 153 138 16
41 82 113 95 103 291 16 344 100 102 8 59 344 45 18 60 57 11 15 58 161 122 120 128 118 108 109 106 108 112 120 124 117 108 110 119 126 125 126 137 129 158 165 142 121 105 138 152 148 134 91 1 341 337
58 55 59 85 60 67 274 100 31 73 38 57 345 141 130 120 153 231 23 60 165 149 137 127 122 116 107 91 89 106 111 116 126 116 113 124 162 164 173 182 193 170 180 167 150 147 140 91 11 350 333 320 320 318
Height
611 609 607 605 603 602 601 601 602 604 608 613 619 625 633 641 650 658 662 668 676 679 682 681 684 691 697 700 708 702 708 706 715 723 723 725 729 701 698 691 696 714 711 708 714 714 707 674 666 671 670 661 658 652
600 597 595 592 588 585 584 583 583 585 589 596 603 612 620 629 639 651 657 661 667 675 676 675 677 680 684 689 697 697 698 693 701 708 717 714 715 716 695 699 688 701 698 698 698 698 679 676 672 671 666 661 656 654
590 586 581 577 572 568 566 565 566 569 573 579 587 596 606 618 629 640 649 657 662 667 672 675 670 673 679 683 685 694 695 689 693 695 701 701 700 702 711 694 686 682 683 689 689 678 675 670 668 666 664 665 661 653
579 573 568 563 558 554 550 546 546 549 555 564 573 583 594 607 621 634 641 649 657 663 666 663 665 665 671 678 680 682 685 686 689 692 696 699 708 691 699 685 684 680 682 683 685 676 672 667 662 660 661 663 661 655
569 563 558 553 549 543 536 528 522 524 535 548 561 574 585 598 614 629 639 646 651 656 656 661 663 664 668 675 677 679 682 685 691 695 701 700 693 688 691 694 686 672 677 688 686 663 666 662 654 652 657 659 656 653
560 557 553 548 544 537 530 519 505 501 520 538 553 568 582 595 609 622 638 646 649 652 655 658 655 658 663 670 674 677 679 682 687 695 697 694 692 691 700 693 677 667 665 665 665 656 658 654 656 654 657 658 658 658
558 555 551 546 542 538 532 524 517 516 526 537 551 567 582 595 607 618 625 627 641 650 644 653 655 656 658 665 672 678 678 680 682 691 695 691 690 692 702 693 671 666 667 663 654 656 659 654 657 661 659 662 665 667
560 556 552 548 545 542 538 535 530 532 536 541 555 571 586 599 614 620 620 624 639 648 647 652 656 659 662 669 674 676 680 682 683 686 689 688 690 691 690 675 672 671 663 665 658 652 651 655 658 664 665 666 672 680
565 561 556 553 552 549 548 548 548 551 555 561 571 583 596 609 615 620 627 634 640 639 641 658 658 656 664 670 674 679 680 684 685 694 685 685 687 684 668 670 671 667 668 656 658 655 658 659 661 665 670 678 681 691
572 568 565 560 561 561 562 562 563 567 573 580 588 597 610 616 618 622 632 636 637 639 643 657 658 657 663 671 678 681 686 690 680 681 674 684 677 660 666 672 672 679 673 656 658 662 664 671 674 677 683 688 692 698
582 579 577 574 573 572 574 577 579 582 585 589 597 604 608 614 623 628 633 637 639 643 644 650 655 658 664 668 675 680 677 677 678 674 673 671 665 660 667 668 668 680 680 666 654 656 663 672 680 686 693 696 700 707
593 591 589 588 589 589 590 588 589 590 589 592 597 607 610 615 620 626 638 635 636 642 648 652 653 658 666 667 677 680 669 674 670 665 670 662 673 676 676 678 674 686 679 676 673 672 681 687 691 693 699 703 708 712
600 599 597 596 596 597 597 597 598 596 596 596 600 609 613 623 632 642 646 639 639 645 646 651 655 662 667 667 672 672 664 665 658 659 656 676 683 686 684 682 682 692 683 682 684 689 694 699 702 703 708 713 716 721
607 605 604 603 604 604 603 600 599 597 599 609 620 638 645 649 648 653 646 641 650 646 649 653 655 656 664 667 667 660 655 653 646 650 673 688 694 692 689 686 685 694 690 691 694 699 704 709 712 716 718 722 725 730
614 612 610 608 608 609 607 604 600 600 611 628 633 652 655 662 663 662 658 653 657 655 651 652 652 655 659 660 660 656 651 662 676 686 689 696 696 693 693 696 696 697 697 702 706 708 713 717 721 725 729 732 736 740
617 616 616 616 613 611 610 609 608 612 629 646 660 664 668 665 669 666 666 664 663 661 655 654 648 648 652 665 668 675 672 689 697 696 699 701 702 702 703 703 704 706 708 712 716 719 723 726 730 734 738 741 746 750
619 621 620 619 617 614 610 613 620 637 652 664 680 680 682 679 680 678 676 672 668 662 653 654 663 669 667 675 684 692 698 700 701 703 706 707 709 710 711 713 714 716 719 723 726 729 732 737 740 743 747 755 757 761
624 624 621 620 619 618 620 626 640 659 676 684 685 688 690 693 690 687 684 678 671 666 667 677 681 690 705 697 709 707 711 712 711 711 713 714 715 718 719 720 723 726 728 732 735 738 742 746 749 756 760 764 765 770
628 626 624 622 621 623 634 646 653 677 689 691 694 694 692 696 697 696 691 684 680 680 683 697 713 719 723 723 722 717 718 718 720 724 725 725 725 727 729 730 732 734 736 740 744 748 752 756 759 764 768 771 773 779
632 630 628 625 624 630 647 660 662 677 690 697 700 703 705 709 705 702 698 694 690 694 712 727 737 738 735 732 728 725 724 725 725 729 734 736 737 736 738 740 742 744 747 751 755 759 762 766 770 773 776 779 781 786
634 633 630 628 630 639 655 664 675 683 689 695 700 700 707 707 708 708 707 706 708 728 740 746 746 744 740 733 730 729 731 732 734 736 741 744 748 748 749 751 753 755 757 762 764 769 772 776 779 781 782 785 788 790
639 638 636 636 643 652 663 670 675 682 687 694 697 701 710 716 724 722 722 725 743 753 753 753 751 748 745 743 742 741 743 742 745 747 749 752 755 758 760 763 764 766 769 771 774 777 781 784 785 787 788 792 794 796
643 644 647 650 659 667 679 675 676 682 685 693 700 704 713 722 727 728 742 751 757 761 760 759 758 756 754 754 752 752 752 752 755 757 759 762 764 767 769 771 773 774 776 781 783 784 786 788 790 792 794 797 799 802
648 658 668 675 675 687 688 692 689 694 699 702 706 715 717 727 732 746 758 764 769 767 764 764 763 762 762 762 763 764 764 764 764 766 769 770 772 776 777 779 781 783 785 786 787 789 791 793 796 798 800 802 804 806
669 692 690 700 696 695 706 716 717 717 731 728 730 730 726 731 746 759 769 774 774 774 774 772 771 771 771 772 772 773 773 772 773 774 779 779 780 782 785 786 788 790 791 791 793 795 797 799 801 803 804 806 807 809
699 709 711 713 715 716 717 725 729 736 737 735 740 736 746 762 777 779 779 783 782 781 780 780 779 779 780 781 780 781 783 782 782 782 786 786 787 788 790 791 794 796 797 797 798 799 801 803 805 806 808 809 810 811
722 731 723 722 721 720 737 743 742 752 758 758 756 764 768 785 788 785 786 788 788 787 786 786 786 786 788 788 789 789 789 789 789 791 792 792 793 794 795 797 799 800 801 802 802 803 805 806 808 809 810 812 813 814
729 732 745 746 745 743 760 765 768 771 771 761 765 784 791 794 792 789 789 791 791 791 791 791 792 793 793 794 795 795 796 796 796 796 797 799 800 801 802 802 803 804 805 806 806 807 808 809 810 812 812 813 815 816
740 741 745 762 761 764 764 777 778 773 771 769 785 791 789 786 788 789 792 792 793 793 794 795 797 797 797 797 798 798 799 800 800 802 803 805 806 808 807 807 807 808 808 808 809 810 811 812 813 813 814 815 816 817
746 745 760 774 778 780 781 778 779 777 772 773 777 784 789 793 793 793 794 795 796 797 798 799 800 800 800 800 801 801 801 800 801 802 805 807 808 809 809 809 810 810 811 811 812 812 813 813 814 815 815 816 816 816
743 752 766 776 784 784 781 779 778 779 780 785 787 794 796 797 798 799 799 799 799 800 800 802 803 803 803 804 804 804 805 806 805 805 806 807 809 810 811 811 812 812 812 812 813 813 813 814 814 815 815 815 815 815
757 770 775 786 786 783 780 782 785 791 794 797 798 798 798 801 806 803 803 801 802 803 804 804 805 806 807 806 806 806 806 808 809 809 810 810 811 811 811 812 812 812 813 813 813 813 814 814 814 814 814 814 813 813
767 771 779 783 787 787 785 783 789 790 794 798 798 798 801 802 808 805 805 803 804 804 805 807 808 808 809 809 809 810 810 811 811 812 812 812 812 812 812 813 813 813 813 813 813 813 813 813 813 813 812 812 812 812